Location: Ar Ranvel
(48.3000°N, 4.8833°W)
Time: 14:37:14
(UTC+00:00)

Cosmos 1908 - Pass Details

Date: 16 June 2021
Orbit: 509 x 530 km, 82.5° (Epoch: 29 July)

Event Time Altitude Azimuth Distance (km) Brightness Sun altitude
Rises 22:20:56 0° 343° (NNW) 2,676 8.6 -13.5°
Reaches altitude 10° 22:23:12 10° 334° (NNW) 1,778 7.4 -13.7°
Maximum altitude 22:26:47 36° 268° (W) 848 4.5 -13.9°
Enters shadow 22:29:52 13° 204° (SSW) 1,584 5.3 -14.2°
